Live Position
Loading 3D Globe...
About Ionosfera-M No. 4
Group: 3 satellites
Description loading...
Upcoming Passes
Passes for default location (London). Set your location on the main map for personalized predictions.
Altitude History
Loading altitude history...
No altitude history available
Two-Line Element Set
1 64877U 25155B 26105.21219466 .00000011 00000-0 24588-4 0 9998
2 64877 98.5976 68.6392 0001680 65.1265 295.0087 14.21477165 37450
Epoch: Apr 15, 2026 •
Age: 6 hours
Current Status
Altitude 830.6 km
Velocity 7.44 km/s
Sub-Earth Point 64.26°N,
97.02°W
Launch Date Jul 25, 2025
Age 0.7 years
Type other
Technical Details
Classification Payload
Mass 430.00 kg
Dry Mass 430.00 kg
Total Mass 430.00 kg
Length 0.80 m
Diameter 1.20 m
Span 10.00 m
Shape Box+antennae
Manufacturer VNIIEMI
Bus Type Ionosfera-M
Phase Status In Orbit
Owner/State VNIIEMI/RU
Most Searched
Loading...